When you browse on this site, cookies collect data to enhance your experience and personalize the content and advertising you see.
Visit our Privacy Policy to learn more. By continuing to use the site, you agree to this use of cookies and data.

Hourly Weather Toledo

Today, 15 July, Wednesday

Time Temperature Precipitation Wind Pressure Humidity
00:00 +23°C° 0 mm 4 mps 714 mmHg 61%
01:00 +22°C° 0 mm 4 mps 714 mmHg 59%
02:00 +22°C° 0 mm 4 mps 714 mmHg 58%
03:00 +21°C° 0 mm 5 mps 714 mmHg 56%
04:00 +21°C° 0 mm 5 mps 714 mmHg 53%
05:00 +21°C° 0 mm 5 mps 714 mmHg 50%
06:00 +21°C° 0 mm 5 mps 715 mmHg 47%
07:00 +23°C° 0 mm 5 mps 715 mmHg 46%
08:00 +25°C° 0 mm 5 mps 715 mmHg 44%
09:00 +27°C° 0 mm 5 mps 715 mmHg 43%
10:00 +28°C° 0 mm 4 mps 715 mmHg 39%
11:00 +30°C° 0 mm 4 mps 715 mmHg 35%
12:00 +33°C° 0 mm 4 mps 715 mmHg 31%
13:00 +34°C° 0 mm 3 mps 715 mmHg 28%
14:00 +34°C° 0 mm 3 mps 715 mmHg 25%
15:00 +35°C° 0 mm 3 mps 715 mmHg 22%
16:00 +35°C° 0 mm 3 mps 714 mmHg 21%
17:00 +35°C° 0 mm 3 mps 714 mmHg 20%
18:00 +35°C° 0 mm 4 mps 714 mmHg 19%
19:00 +33°C° 0 mm 4 mps 715 mmHg 22%
20:00 +32°C° 0 mm 5 mps 715 mmHg 24%
21:00 +29°C° 0 mm 5 mps 715 mmHg 26%
22:00 +28°C° 0 mm 5 mps 715 mmHg 30%
23:00 +27°C° 0 mm 5 mps 716 mmHg 35%

Tomorrow, 16 July, Thursday

Time Temperature Precipitation Wind Pressure Humidity
00:00 +26°C° 0 mm 5 mps 716 mmHg 40%
01:00 +25°C° 0 mm 5 mps 716 mmHg 43%
02:00 +23°C° 0 mm 4 mps 716 mmHg 47%
03:00 +23°C° 0 mm 4 mps 716 mmHg 50%
04:00 +23°C° 0 mm 4 mps 716 mmHg 50%
05:00 +22°C° 0 mm 3 mps 716 mmHg 50%
06:00 +22°C° 0 mm 3 mps 716 mmHg 50%
07:00 +25°C° 0 mm 3 mps 716 mmHg 48%
08:00 +27°C° 0 mm 3 mps 716 mmHg 46%
09:00 +28°C° 0 mm 4 mps 716 mmHg 44%
10:00 +30°C° 0 mm 3 mps 716 mmHg 38%
11:00 +33°C° 0 mm 3 mps 716 mmHg 33%
12:00 +34°C° 0 mm 2 mps 716 mmHg 28%
13:00 +35°C° 0 mm 2 mps 715 mmHg 26%
14:00 +36°C° 0 mm 2 mps 715 mmHg 23%
15:00 +37°C° 0 mm 2 mps 715 mmHg 21%
16:00 +37°C° 0 mm 2 mps 714 mmHg 20%
17:00 +37°C° 0 mm 2 mps 714 mmHg 20%
18:00 +37°C° 0 mm 2 mps 714 mmHg 19%
19:00 +35°C° 0 mm 2 mps 714 mmHg 21%
20:00 +34°C° 0 mm 2 mps 714 mmHg 24%
21:00 +31°C° 0 mm 2 mps 715 mmHg 26%
22:00 +30°C° 0 mm 2 mps 715 mmHg 28%
23:00 +29°C° 0 mm 3 mps 715 mmHg 30%

Day after tomorrow, 17 July, Friday

Time Temperature Precipitation Wind Pressure Humidity
00:00 +28°C° 0 mm 4 mps 715 mmHg 32%
01:00 +27°C° 0 mm 4 mps 715 mmHg 37%
02:00 +26°C° 0 mm 3 mps 715 mmHg 42%
03:00 +25°C° 0 mm 3 mps 715 mmHg 47%
04:00 +25°C° 0 mm 3 mps 715 mmHg 49%
05:00 +25°C° 0 mm 3 mps 715 mmHg 50%
06:00 +25°C° 0 mm 3 mps 715 mmHg 52%
07:00 +26°C° 0 mm 3 mps 715 mmHg 49%
08:00 +28°C° 0 mm 4 mps 715 mmHg 46%
09:00 +29°C° 0 mm 4 mps 715 mmHg 42%
10:00 +31°C° 0 mm 3 mps 715 mmHg 36%
11:00 +33°C° 0 mm 3 mps 715 mmHg 31%
12:00 +35°C° 0 mm 2 mps 714 mmHg 25%
13:00 +36°C° 0 mm 3 mps 714 mmHg 21%
14:00 +37°C° 0 mm 3 mps 714 mmHg 18%
15:00 +38°C° 0 mm 3 mps 713 mmHg 15%
16:00 +38°C° 0 mm 3 mps 713 mmHg 14%
17:00 +38°C° 0 mm 3 mps 713 mmHg 13%
18:00 +38°C° 0 mm 3 mps 713 mmHg 11%
19:00 +35°C° 0 mm 4 mps 713 mmHg 14%
20:00 +33°C° 0 mm 4 mps 714 mmHg 16%
21:00 +30°C° 0 mm 4 mps 714 mmHg 18%
22:00 +29°C° 0 mm 4 mps 714 mmHg 24%
23:00 +27°C° 0 mm 4 mps 714 mmHg 30%

18 July, Saturday

Time Temperature Precipitation Wind Pressure Humidity
00:00 +26°C° 0 mm 4 mps 714 mmHg 37%
01:00 +25°C° 0 mm 4 mps 714 mmHg 41%
02:00 +25°C° 0 mm 4 mps 714 mmHg 46%
03:00 +23°C° 0 mm 4 mps 714 mmHg 50%
04:00 +24°C° 0 mm 3 mps 714 mmHg 53%
05:00 +22°C° 0 mm 3 mps 714 mmHg 56%
06:00 +22°C° 0 mm 3 mps 714 mmHg 59%
07:00 +25°C° 0 mm 3 mps 714 mmHg 55%
08:00 +27°C° 0 mm 3 mps 714 mmHg 50%
09:00 +28°C° 0 mm 4 mps 714 mmHg 45%
10:00 +30°C° 0 mm 3 mps 714 mmHg 38%
11:00 +32°C° 0 mm 2 mps 714 mmHg 31%
12:00 +34°C° 0 mm 1 mps 714 mmHg 24%
13:00 +35°C° 0 mm 1 mps 714 mmHg 21%
14:00 +37°C° 0 mm 2 mps 713 mmHg 17%
15:00 +38°C° 0 mm 2 mps 713 mmHg 13%
16:00 +38°C° 0 mm 2 mps 713 mmHg 12%
17:00 +38°C° 0 mm 2 mps 712 mmHg 11%
18:00 +38°C° 0 mm 2 mps 712 mmHg 10%
19:00 +36°C° 0 mm 2 mps 713 mmHg 12%
20:00 +33°C° 0 mm 1 mps 713 mmHg 14%
21:00 +31°C° 0 mm 1 mps 713 mmHg 15%
22:00 +30°C° 0 mm 2 mps 713 mmHg 18%
23:00 +30°C° 0 mm 3 mps 713 mmHg 22%

19 July, Sunday

Time Temperature Precipitation Wind Pressure Humidity
00:00 +29°C° 0 mm 3 mps 714 mmHg 25%
01:00 +28°C° 0 mm 3 mps 713 mmHg 32%
02:00 +27°C° 0 mm 3 mps 713 mmHg 39%
03:00 +26°C° 0 mm 3 mps 713 mmHg 47%
04:00 +26°C° 0 mm 3 mps 713 mmHg 50%
05:00 +25°C° 0 mm 3 mps 714 mmHg 54%
06:00 +25°C° 0 mm 3 mps 714 mmHg 57%
07:00 +27°C° 0 mm 3 mps 714 mmHg 50%
08:00 +29°C° 0 mm 2 mps 714 mmHg 42%
09:00 +31°C° 0 mm 2 mps 715 mmHg 34%
10:00 +34°C° 0 mm 2 mps 714 mmHg 30%
11:00 +36°C° 0 mm 2 mps 714 mmHg 26%
12:00 +38°C° 0 mm 3 mps 714 mmHg 22%
13:00 +38°C° 0 mm 3 mps 714 mmHg 20%
14:00 +39°C° 0 mm 3 mps 713 mmHg 19%
15:00 +40°C° 0 mm 3 mps 713 mmHg 18%
16:00 +40°C° 0 mm 3 mps 713 mmHg 17%
17:00 +40°C° 0 mm 3 mps 713 mmHg 17%
18:00 +40°C° 0 mm 3 mps 713 mmHg 17%
19:00 +38°C° 0.2 mm 3 mps 713 mmHg 20%
20:00 +36°C° 0.2 mm 3 mps 713 mmHg 23%
21:00 +34°C° 0.2 mm 3 mps 714 mmHg 25%
22:00 +33°C° 0 mm 3 mps 714 mmHg 24%
23:00 +31°C° 0 mm 3 mps 714 mmHg 23%

20 July, Monday

Time Temperature Precipitation Wind Pressure Humidity
00:00 +30°C° 0 mm 3 mps 714 mmHg 21%
01:00 +29°C° 0 mm 3 mps 714 mmHg 25%
02:00 +28°C° 0 mm 2 mps 714 mmHg 28%
03:00 +27°C° 0 mm 2 mps 713 mmHg 31%
04:00 +27°C° 0 mm 1 mps 714 mmHg 33%
05:00 +27°C° 0 mm 1 mps 714 mmHg 35%
06:00 +27°C° 0 mm 1 mps 714 mmHg 36%
07:00 +29°C° 0 mm 1 mps 714 mmHg 32%
08:00 +31°C° 0 mm 1 mps 714 mmHg 28%
09:00 +34°C° 0 mm 2 mps 714 mmHg 24%
10:00 +35°C° 0 mm 2 mps 714 mmHg 22%
11:00 +37°C° 0 mm 2 mps 714 mmHg 20%
12:00 +39°C° 0 mm 3 mps 714 mmHg 17%
13:00 +39°C° 0 mm 3 mps 714 mmHg 16%
14:00 +40°C° 0 mm 3 mps 713 mmHg 14%
15:00 +42°C° 0 mm 4 mps 713 mmHg 13%
16:00 +40°C° 0 mm 3 mps 713 mmHg 14%
17:00 +40°C° 0 mm 3 mps 712 mmHg 15%
18:00 +40°C° 0 mm 3 mps 712 mmHg 15%
19:00 +38°C° 0 mm 4 mps 712 mmHg 17%
20:00 +36°C° 0 mm 4 mps 713 mmHg 19%
21:00 +34°C° 0 mm 5 mps 713 mmHg 21%
22:00 +33°C° 0 mm 5 mps 713 mmHg 22%
23:00 +33°C° 0 mm 6 mps 713 mmHg 23%
Show more